{"data":{"norad_id":52476,"intl_designator":"2022-049AB","name":"STARLINK-3835","alt_names":[],"object_type":"PAYLOAD","status":"ACTIVE","operator":null,"country":"US","launch_date":"2022-05-06","launch_site_code":"AFETR","launch_vehicle":null,"mission":null,"orbit_class":"UNKNOWN","rcs_meters":null,"size_class":null,"mass_kg":null,"dimensions":null,"purposes":["comms"],"wikipedia_slug":null,"has_3d_model":false,"image_url":null,"decayed_at":null,"tle_current":{"epoch":"2026-09-20T05:10:37.241184Z","epoch_age_seconds":87820,"freshness":"FRESH","line1":"1 52476U 22049AB  26263.21570881 -.00001505  00000+0 -32280-4 0  9993","line2":"2 52476  53.1594 245.5208 0001016  94.4058 265.7061 15.35381307243133","mean_motion":15.35381307,"eccentricity":0.0001016,"inclination_deg":53.1594,"raan_deg":245.5208,"arg_perigee_deg":94.4058,"mean_anomaly_deg":265.7061,"bstar":-3.228e-5,"rev_number":24313,"period_min":93.787777240406,"perigee_km":459.09340934864,"apogee_km":460.48287573761,"semimajor_km":6837.9251425431,"source":"CELESTRAK","updated_at":"2026-09-20T09:00:40.052445Z"}}}